Oconto, WI

10:33 PM CST on November 21, 2019 (GMT -0600)
Oconto Municipal

Weather History for KOCQ - October, 2019

Change the Weather History Date:

Wednesday, October 23, 2019

  Actual Average Record
Temperature  
Mean Temperature 44 °F -  
Max Temperature 49 °F 54 °F 56 °F (2016)
Min Temperature 38 °F 34 °F 25 °F (2013)
Degree Days  
Heating Degree Days 22    
Moisture  
Dew Point 34 °F    
Average Humidity 68    
Maximum Humidity 83    
Minimum Humidity 58    
Precipitation  
Precipitation 0.00 in - - ()
Sea Level Pressure  
Sea Level Pressure 29.80 in    
Wind  
Wind Speed 13 mph (West)    
Max Wind Speed 18 mph    
Max Gust Speed 28 mph    
Visibility 10 miles    
Events      
Averages and records for this station are not official NWS values.
T = Trace of Precipitation, MM = Missing Value Source: NWS Daily Summary

Daily Weather History Graph

Daily Weather History Graph

Search for Another Location

Airport or City:

Astronomy

Oct. 23, 2019 Rise Set
Actual Time 7:17 AM CDT 5:53 PM CDT
Civil Twilight 6:47 AM CDT 6:23 PM CDT
Nautical Twilight 6:13 AM CDT 6:57 PM CDT
Astronomical Twilight 5:39 AM CDT 7:31 PM CDT
Moon 1:16 AM CDT (10/23) 4:01 PM CDT (10/23)
Length of Visible Light 11h 36m
Length of Day
10h 36m
Waning Crescent, 26% of the Moon is Illuminated
Oct 23
Waning Crescent
Oct 27
New
Nov 4
First Quarter
Nov 12
Full
Nov 19
Last Quarter

Hourly Weather History & Observations

Time (CDT) Temp. Windchill Dew Point Humidity Pressure Visibility Wind Dir Wind Speed Gust Speed Precip Events Conditions
12:55 AM 42.3 °F 34.1 °F 34.2 °F 73% 29.57 in 10.0 mi WSW 17.3 mph 20.7 mph N/A   Overcast
1:15 AM 42.3 °F 34.4 °F 34.0 °F 72% 29.57 in 10.0 mi WSW 16.1 mph 21.9 mph N/A   Overcast
1:35 AM 42.1 °F 35.2 °F 34.2 °F 74% 29.58 in 10.0 mi WSW 12.7 mph 21.9 mph N/A   Overcast
1:55 AM 42.1 °F 34.2 °F 34.2 °F 74% 29.59 in 10.0 mi WSW 16.1 mph 23.0 mph N/A   Overcast
2:35 AM 42.3 °F 35.5 °F 34.0 °F 72% 29.59 in 10.0 mi WSW 12.7 mph 20.7 mph N/A   Overcast
2:55 AM 42.3 °F 34.8 °F 34.0 °F 72% 29.60 in 10.0 mi WSW 15.0 mph 19.6 mph N/A   Overcast
3:15 AM 42.3 °F 35.9 °F 33.8 °F 72% 29.60 in 10.0 mi West 11.5 mph 21.9 mph N/A   Overcast
3:35 AM 42.3 °F 35.9 °F 34.0 °F 72% 29.60 in 10.0 mi West 11.5 mph 17.3 mph N/A   Overcast
3:55 AM 42.1 °F 34.9 °F 34.0 °F 73% 29.61 in 10.0 mi WSW 13.8 mph 18.4 mph N/A   Overcast
4:15 AM 42.4 °F 36.5 °F 34.0 °F 72% 29.61 in 10.0 mi WSW 10.4 mph 19.6 mph N/A   Overcast
4:35 AM 42.4 °F 36.1 °F 33.4 °F 70% 29.62 in 10.0 mi West 11.5 mph 19.6 mph N/A   Overcast
4:55 AM 42.8 °F 36.2 °F 33.4 °F 70% 29.64 in 10.0 mi West 12.7 mph 24.2 mph N/A   Overcast
5:15 AM 42.3 °F 36.3 °F 33.1 °F 70% 29.64 in 10.0 mi West 10.4 mph 21.9 mph N/A   Overcast
5:35 AM 41.5 °F 35.0 °F 33.1 °F 72% 29.65 in 10.0 mi West 11.5 mph 16.1 mph N/A   Overcast
5:55 AM 41.9 °F 34.3 °F 32.9 °F 70% 29.66 in 10.0 mi West 15.0 mph 21.9 mph N/A   Overcast
6:15 AM 42.1 °F 35.2 °F 32.9 °F 70% 29.68 in 10.0 mi West 12.7 mph 24.2 mph N/A   Overcast
6:35 AM 42.1 °F 34.2 °F 32.2 °F 68% 29.68 in 10.0 mi West 16.1 mph 25.3 mph N/A   Overcast
6:55 AM 41.9 °F 34.0 °F 32.2 °F 68% 29.69 in 10.0 mi West 16.1 mph 23.0 mph N/A   Overcast
7:15 AM 41.9 °F 34.0 °F 32.4 °F 69% 29.70 in 10.0 mi West 16.1 mph 19.6 mph N/A   Overcast
7:35 AM 41.9 °F 35.0 °F 32.4 °F 69% 29.71 in 10.0 mi West 12.7 mph 20.7 mph N/A   Overcast
7:55 AM 41.9 °F 34.6 °F 32.0 °F 68% 29.71 in 10.0 mi West 13.8 mph 20.7 mph N/A   Overcast
8:35 AM 42.1 °F 34.5 °F 32.0 °F 67% 29.74 in 10.0 mi WSW 15.0 mph 25.3 mph N/A   Overcast
8:55 AM 42.4 °F 35.0 °F 31.8 °F 66% 29.75 in 10.0 mi WSW 15.0 mph 21.9 mph N/A   Overcast
9:15 AM 42.8 °F 35.1 °F 31.6 °F 65% 29.76 in 10.0 mi WSW 16.1 mph 23.0 mph N/A   Overcast
9:35 AM 43.0 °F 35.7 °F 31.8 °F 65% 29.77 in 10.0 mi West 15.0 mph 24.2 mph N/A   Overcast
9:55 AM 43.2 °F 36.6 °F 31.8 °F 64% 29.79 in 10.0 mi West 12.7 mph 20.7 mph N/A   Overcast
10:15 AM 43.7 °F 35.7 °F 31.8 °F 63% 29.79 in 10.0 mi West 18.4 mph 27.6 mph N/A   Overcast
10:35 AM 43.7 °F 37.7 °F 31.5 °F 62% 29.79 in 10.0 mi West 11.5 mph 25.3 mph N/A   Overcast
10:55 AM 44.4 °F 36.6 °F 32.0 °F 62% 29.80 in 10.0 mi West 18.4 mph 24.2 mph N/A   Overcast
11:35 AM 45.1 °F 37.9 °F 32.7 °F 62% 29.81 in 10.0 mi West 17.3 mph 23.0 mph N/A   Overcast
11:55 AM 45.5 °F 38.6 °F 33.3 °F 62% 29.81 in 10.0 mi West 16.1 mph 23.0 mph N/A   Overcast
12:35 PM 46.0 °F 40.2 °F 33.4 °F 61% 29.82 in 10.0 mi West 12.7 mph 21.9 mph N/A   Overcast
12:55 PM 46.8 °F - 33.6 °F 60% 29.82 in 10.0 mi WSW 16.1 mph 20.7 mph N/A   Overcast
1:15 PM 46.4 °F 40.1 °F 32.9 °F 59% 29.82 in 10.0 mi West 15.0 mph 21.9 mph N/A   Overcast
1:35 PM 46.8 °F - 33.1 °F 59% 29.83 in 10.0 mi West 17.3 mph - N/A   Overcast
1:55 PM 46.8 °F - 33.6 °F 60% 29.83 in 10.0 mi West 12.7 mph 21.9 mph N/A   Overcast
2:15 PM 47.3 °F - 34.2 °F 60% 29.83 in 10.0 mi West 13.8 mph 20.7 mph N/A   Overcast
2:35 PM 46.9 °F - 34.0 °F 61% 29.83 in 10.0 mi West 11.5 mph 18.4 mph N/A   Mostly Cloudy
2:55 PM 47.5 °F - 33.6 °F 59% 29.84 in 10.0 mi West 11.5 mph 17.3 mph N/A   Mostly Cloudy
3:15 PM 48.0 °F - 34.0 °F 58% 29.84 in 10.0 mi WSW 10.4 mph - N/A   Scattered Clouds
3:35 PM 48.6 °F - 34.2 °F 58% 29.84 in 10.0 mi WSW 13.8 mph - N/A   Scattered Clouds
3:55 PM 48.2 °F - 34.2 °F 58% 29.85 in 10.0 mi WSW 12.7 mph 18.4 mph N/A   Scattered Clouds
4:15 PM 47.5 °F - 34.3 °F 60% 29.86 in 10.0 mi West 9.2 mph - N/A   Scattered Clouds
4:35 PM 47.7 °F - 34.2 °F 60% 29.87 in 10.0 mi West 11.5 mph - N/A   Scattered Clouds
4:55 PM 46.6 °F - 34.0 °F 62% 29.88 in 10.0 mi West 9.2 mph 17.3 mph N/A   Scattered Clouds
5:15 PM 45.5 °F 40.3 °F 34.0 °F 64% 29.89 in 10.0 mi WSW 10.4 mph - N/A   Scattered Clouds
5:35 PM 44.4 °F 40.5 °F 34.2 °F 67% 29.89 in 10.0 mi West 6.9 mph - N/A   Clear
5:55 PM 44.1 °F 41.5 °F 34.0 °F 68% 29.90 in 10.0 mi WNW 4.6 mph - N/A   Clear
6:15 PM 43.0 °F 39.5 °F 34.3 °F 72% 29.92 in 10.0 mi West 5.8 mph - N/A   Clear
6:35 PM 43.5 °F 38.9 °F 34.2 °F 70% 29.93 in 10.0 mi West 8.1 mph - N/A   Clear
6:55 PM 43.2 °F 39.0 °F 34.0 °F 70% 29.94 in 10.0 mi West 6.9 mph - N/A   Clear
7:15 PM 43.0 °F 39.5 °F 34.0 °F 71% 29.94 in 10.0 mi West 5.8 mph - N/A   Clear
7:35 PM 43.3 °F 39.9 °F 33.3 °F 68% 29.94 in 10.0 mi WNW 5.8 mph - N/A   Clear
7:55 PM 43.2 °F 40.5 °F 33.4 °F 69% 29.95 in 10.0 mi WNW 4.6 mph - N/A   Scattered Clouds
8:15 PM 42.8 °F 40.1 °F 33.8 °F 70% 29.96 in 10.0 mi West 4.6 mph - N/A   Mostly Cloudy
8:35 PM 42.1 °F 38.4 °F 34.2 °F 74% 29.98 in 10.0 mi West 5.8 mph - N/A   Overcast
8:55 PM 42.1 °F 39.2 °F 34.2 °F 74% 29.99 in 10.0 mi WSW 4.6 mph - N/A   Overcast
9:15 PM 41.7 °F 39.8 °F 34.7 °F 76% 29.98 in 10.0 mi West 3.5 mph - N/A   Overcast
9:35 PM 41.4 °F 38.4 °F 34.9 °F 78% 29.99 in 10.0 mi West 4.6 mph - N/A   Overcast
9:55 PM 41.4 °F 39.4 °F 34.7 °F 77% 29.99 in 10.0 mi WSW 3.5 mph - N/A   Overcast
10:15 PM 41.0 °F 39.0 °F 35.1 °F 79% 29.99 in 10.0 mi West 3.5 mph - N/A   Overcast
10:35 PM 40.5 °F 38.4 °F 34.9 °F 80% 29.99 in 10.0 mi West 3.5 mph - N/A   Mostly Cloudy
10:55 PM 40.5 °F 38.4 °F 34.7 °F 80% 29.99 in 10.0 mi WNW 3.5 mph - N/A   Mostly Cloudy
11:15 PM 40.1 °F 38.0 °F 34.3 °F 80% 29.99 in 10.0 mi WNW 3.5 mph - N/A   Mostly Cloudy
11:35 PM 39.0 °F 35.7 °F 34.0 °F 82% 29.99 in 10.0 mi WNW 4.6 mph - N/A   Scattered Clouds
11:55 PM 38.5 °F 35.0 °F 33.8 °F 83% 29.99 in 10.0 mi WNW 4.6 mph - N/A   Clear